Theta_e
294 292 290 291 291 291 291 291 291 291 291 290 290 290 290 290 290 290 290 290 290 290 289 289 289 289 289 289 289 289 289 290 290 290 291 292 292 293 290 290 290 290 290
294 291 289 289 290 290 289 289 289 289 289 289 288 288 288 289 289 289 289 289 289 289 289 289 288 288 288 288 288 288 288 287 288 288 289 291 292 292 289 290 289 289 289
294 291 289 288 288 288 288 288 288 288 288 289 289 288 288 288 288 288 288 288 288 288 288 288 288 288 288 288 287 287 287 287 287 287 287 288 290 288 290 289 289 288 288
293 290 288 287 287 286 286 287 288 288 288 288 287 287 287 287 288 288 288 288 288 288 288 287 287 287 287 287 286 286 286 286 285 286 286 286 285 287 287 288 288 287 287
293 290 288 287 286 286 287 287 287 287 287 287 287 287 287 287 287 287 287 287 287 287 287 287 287 286 286 286 285 285 285 285 285 284 285 285 285 285 286 287 286 286 286
293 290 288 287 286 285 285 286 286 286 286 286 286 286 286 286 286 286 286 286 286 286 287 286 286 286 286 285 285 284 284 284 284 284 284 284 284 285 285 285 285 285 285
293 290 288 287 286 285 285 285 285 286 286 286 286 286 286 286 285 285 285 286 285 285 285 286 286 286 285 285 285 284 284 283 284 283 283 283 283 283 283 283 284 284 284
292 291 289 287 286 285 285 284 284 284 285 285 285 285 285 285 285 285 285 286 286 286 286 286 286 286 285 285 284 284 284 283 283 282 283 282 282 282 282 283 283 283 283
291 290 288 286 285 284 284 283 283 283 284 284 284 284 284 285 285 285 285 286 286 286 286 286 285 285 284 284 283 283 283 282 282 282 282 282 281 281 281 281 282 282 282
289 288 287 285 284 283 283 282 282 282 283 283 283 283 284 284 284 284 285 285 285 285 285 284 283 283 282 282 281 281 281 280 281 281 281 281 280 280 280 281 281 281 281
287 286 285 284 283 282 282 282 281 282 282 282 283 283 283 284 284 284 284 284 284 283 282 282 281 280 280 280 279 279 279 279 279 279 279 279 279 279 279 279 279 280 280
285 284 284 283 282 282 282 282 282 282 282 282 282 283 283 283 283 283 282 282 281 280 279 279 279 279 278 278 278 278 278 278 278 277 277 277 278 278 278 278 279 279 279
282 282 282 282 282 282 282 282 282 281 281 282 282 282 283 282 281 280 279 279 278 278 278 277 277 277 277 277 277 277 277 277 277 276 276 276 277 277 277 278 278 278 279
282 281 281 281 281 281 281 281 281 281 281 282 282 281 280 279 278 278 278 277 277 276 276 276 276 276 276 276 276 276 276 275 275 275 275 276 276 276 277 277 278 278 278
282 281 281 281 281 281 281 281 281 281 281 280 279 279 278 278 277 277 276 276 276 275 275 274 275 275 275 275 274 274 274 275 275 275 276 276 277 277 278 278 278 278 278
283 282 281 279 279 278 278 279 279 280 279 278 278 278 277 277 276 275 275 275 274 274 274 274 274 274 273 273 274 275 275 275 275 275 275 276 277 277 278 279 279 280 280
281 280 280 279 278 278 277 277 277 277 277 277 276 276 276 275 275 274 274 274 273 273 273 273 273 273 273 273 274 275 275 274 274 275 275 275 276 277 277 278 279 279 280
279 277 277 276 276 275 275 275 275 275 275 275 275 275 274 273 273 273 273 272 272 272 272 272 272 272 272 273 274 274 274 274 274 274 274 275 275 276 276 277 277 277 277
276 276 276 276 275 275 276 275 275 274 274 274 274 273 273 273 272 272 272 272 271 271 271 271 272 272 272 272 273 274 273 273 273 273 274 274 274 275 276 277 277 277 276
275 275 275 275 275 275 275 274 274 274 274 274 274 273 272 272 272 272 272 271 271 270 270 271 271 271 271 272 272 273 273 273 273 273 272 273 274 275 276 276 276 276 276
275 275 275 274 274 274 274 274 274 274 274 273 273 272 272 272 272 271 271 271 270 270 270 270 270 270 270 270 271 272 272 272 272 272 272 272 274 275 276 277 277 277 278
275 274 274 274 273 273 272 273 273 274 273 272 272 271 271 271 271 271 271 270 270 269 269 269 269 269 270 270 270 271 272 272 272 272 272 272 274 275 276 277 277 277 278
274 274 274 273 273 273 272 272 271 271 272 271 271 271 271 270 270 270 269 269 269 269 269 269 269 269 269 269 270 271 272 272 273 273 273 274 275 275 276 277 277 278 277
273 273 273 273 273 272 272 272 271 271 270 270 270 270 270 270 270 269 269 268 268 268 268 268 268 268 268 269 269 269 270 270 271 272 272 273 274 275 276 276 276 277 276
272 272 272 272 272 272 271 271 271 270 270 269 269 268 268 268 268 268 268 268 268 267 267 267 267 267 268 269 269 269 270 270 271 272 272 272 273 273 274 275 275 276 275
271 272 272 272 271 271 271 270 270 270 269 269 268 268 268 268 268 268 268 268 269 269 269 269 270 269 270 270 270 271 272 273 273 274 274 274 275 276 275 275 274 274 274
Wind_Speed
23 22 22 23 24 24 24 23 22 21 19 17 15 14 13 12 11 9 8 6 6 6 7 9 11 12 14 15 17 18 20 21 23 23 22 11 11 7 11 11 12 14 14
26 24 23 22 24 24 23 23 23 22 20 18 14 14 14 13 11 9 7 6 5 5 6 8 10 11 12 14 15 17 17 17 22 20 14 8 6 3 18 13 11 14 15
29 27 25 23 23 23 24 23 23 23 21 20 17 15 13 12 10 8 6 4 2 3 5 7 9 11 12 13 14 15 15 14 13 16 11 6 4 20 3 12 10 15 18
26 25 24 22 21 19 21 22 22 22 20 18 17 16 13 12 11 8 6 3 1 3 6 8 10 12 13 13 14 15 14 13 9 7 11 8 11 6 9 9 19 12 17
27 27 25 24 23 23 24 24 23 24 23 22 20 18 15 14 11 8 5 3 4 6 8 10 12 14 14 15 16 15 14 13 12 10 10 10 8 11 12 19 15 21 17
25 24 24 23 23 22 23 24 23 22 22 21 20 18 16 13 10 8 5 4 7 10 11 13 15 16 17 17 17 17 16 16 15 14 13 12 11 12 13 18 20 22 24
24 25 26 25 24 22 22 23 24 23 23 22 21 19 16 14 12 9 7 6 7 10 13 15 16 17 19 20 20 19 19 18 18 17 16 16 17 17 18 18 21 22 19
21 23 24 24 22 22 21 21 22 23 22 21 20 19 17 14 13 11 10 9 11 13 16 18 20 21 22 22 22 21 21 20 20 19 20 20 19 19 18 19 19 24 23
19 22 23 22 21 21 20 20 21 21 21 20 18 17 16 14 13 12 11 12 15 17 19 21 22 23 23 23 24 24 23 22 21 21 20 21 21 20 19 19 20 20 24
17 20 22 22 22 20 19 19 19 19 19 18 17 16 15 14 13 13 14 16 19 21 22 22 23 24 25 26 25 25 23 23 23 23 24 23 24 20 20 20 20 21 25
16 19 22 24 22 22 21 20 19 19 18 18 17 15 15 14 15 16 17 20 21 22 23 23 24 25 24 24 23 23 22 24 24 24 23 23 23 24 24 23 22 24 25
16 19 22 25 26 24 21 20 19 18 17 17 16 15 16 17 18 18 20 21 22 22 23 23 23 23 22 22 22 23 23 23 23 22 22 23 21 22 23 23 24 24 25
14 17 19 22 22 21 20 19 19 18 18 18 18 18 18 18 18 19 21 22 23 22 22 22 22 23 23 23 24 24 25 25 24 23 22 21 21 22 23 23 24 25 25
10 12 14 17 19 19 18 18 18 18 19 20 20 20 20 20 21 22 23 23 23 24 24 24 25 25 25 26 26 25 25 24 23 23 22 22 22 23 23 24 25 25 26
5 6 8 11 13 14 15 15 16 17 20 21 21 22 23 24 26 26 25 25 26 25 24 24 26 26 26 24 23 22 22 22 22 22 23 23 24 24 26 28 29 30 31
4 3 3 4 5 7 9 12 15 20 24 25 26 27 29 30 30 29 28 27 26 26 26 26 26 27 24 21 22 22 24 25 26 28 28 27 27 28 29 30 31 32 35
2 3 5 8 10 13 16 20 23 25 28 30 31 32 32 32 32 31 31 31 31 29 29 28 27 27 26 24 24 24 26 28 29 29 29 29 29 27 29 29 29 31 31
5 8 12 17 22 24 25 26 28 30 32 35 35 35 35 35 34 35 35 35 34 33 31 29 28 27 27 25 25 26 28 31 31 31 30 31 32 31 30 31 33 35 34
22 29 29 29 30 31 30 31 32 32 34 36 38 39 38 37 37 36 37 36 35 36 35 29 28 29 29 26 26 26 28 31 31 29 30 31 33 32 30 32 34 37 38
31 31 30 30 32 32 29 31 33 34 37 37 38 38 39 38 37 36 36 35 35 37 35 30 29 29 31 28 27 27 30 33 33 32 33 31 33 33 32 34 36 39 39
30 32 33 35 37 34 31 34 35 37 36 35 35 36 36 36 36 36 36 36 36 36 37 37 35 33 30 30 28 28 30 33 35 36 35 34 29 30 30 31 34 37 36
32 31 33 33 32 32 34 37 37 34 32 32 32 33 32 32 32 34 34 34 35 36 37 38 38 38 37 33 30 30 31 32 35 38 38 37 31 31 32 32 33 33 34
30 29 30 32 31 29 29 34 36 34 31 31 31 30 30 30 30 31 33 34 35 36 37 37 38 38 34 32 27 27 29 31 34 36 37 34 33 33 34 34 34 33 34
31 30 30 31 32 29 29 30 30 30 30 31 30 29 29 28 28 29 31 31 33 33 34 34 35 35 32 32 31 27 26 25 27 29 31 31 31 31 32 31 30 29 30
31 31 31 32 32 30 29 28 27 26 28 30 28 28 24 25 25 27 28 29 30 28 30 31 30 30 32 32 26 24 23 22 23 23 26 29 29 30 32 28 31 24 20
30 29 30 32 33 32 32 31 30 29 29 29 26 25 25 25 24 24 26 24 26 27 29 29 31 33 30 28 26 26 28 29 30 32 35 35 34 32 31 21 19 23 27
Wind_Direction
188 185 186 192 190 189 187 186 185 182 177 170 167 166 166 161 157 150 138 122 97 72 54 40 31 24 20 18 17 15 10 3 6 3 2 359 336 319 352 332 330 319 323
187 186 184 187 191 192 189 188 186 182 176 172 170 172 170 170 163 154 145 128 99 65 40 26 19 16 11 7 5 6 9 0 357 5 10 347 334 264 330 320 333 325 327
188 187 185 185 187 189 191 188 187 187 187 188 186 182 175 167 165 162 153 137 96 29 11 6 1 358 355 352 350 351 353 359 347 353 4 349 326 312 272 326 326 330 327
190 187 185 183 179 178 187 192 194 195 195 192 188 182 178 177 182 178 179 183 278 334 342 343 342 341 338 336 335 335 337 340 336 344 333 324 302 312 312 281 309 306 325
190 189 188 186 187 189 192 191 190 192 192 190 188 185 182 189 185 188 198 239 295 313 322 325 328 327 326 323 322 323 324 323 319 310 308 303 293 290 277 298 301 301 307
190 190 188 185 181 185 188 189 190 190 190 191 190 188 189 188 190 193 208 261 300 309 311 315 316 316 314 313 312 311 310 307 304 302 298 295 288 275 280 286 291 295 302
187 188 187 184 183 182 186 189 192 193 195 195 196 196 197 197 200 207 223 253 280 293 298 307 307 306 305 304 303 302 300 298 294 291 286 283 284 282 280 282 287 290 291
186 188 188 186 185 184 184 187 190 194 196 199 201 204 206 209 215 224 237 259 276 285 291 294 295 296 297 296 295 293 292 290 288 284 284 284 281 279 276 275 282 289 289
182 184 183 185 187 187 186 189 192 198 199 204 207 211 215 221 229 241 256 270 279 283 286 288 288 289 289 289 288 289 288 284 283 282 281 280 280 277 273 271 271 273 284
172 177 183 185 186 186 185 193 198 202 205 209 213 219 226 235 247 260 271 279 283 284 285 286 286 285 285 285 284 284 284 281 281 281 280 278 277 272 268 267 266 265 270
175 175 178 182 187 191 193 193 196 204 211 215 222 231 244 257 268 276 281 284 284 285 285 284 284 284 284 284 283 282 281 281 282 281 280 277 274 273 271 266 265 265 265
173 176 184 189 194 196 198 202 207 212 218 227 236 247 259 270 276 280 282 283 283 283 283 284 283 281 281 283 284 283 283 282 281 280 279 276 275 272 270 268 267 266 266
175 183 189 195 199 203 207 213 219 223 231 241 249 258 267 273 277 280 282 282 282 283 284 283 283 284 284 282 281 282 281 280 279 279 276 275 272 270 270 268 269 267 268
173 183 191 202 207 213 221 226 233 241 249 255 261 267 272 276 278 278 279 280 284 284 283 282 280 280 282 281 281 279 278 277 277 275 273 272 270 268 268 268 267 267 270
156 177 200 214 221 229 234 239 246 255 261 265 269 273 276 278 278 280 281 282 282 281 279 278 280 280 279 278 276 275 275 276 276 276 275 274 273 272 272 272 271 269 269
141 147 184 223 232 245 258 267 271 268 266 267 270 273 276 277 278 279 279 279 277 277 278 276 277 277 274 270 270 272 275 274 273 273 274 272 271 269 269 269 268 268 271
232 248 267 275 281 280 277 274 273 270 268 269 272 274 274 276 277 279 279 278 276 275 274 273 273 271 271 270 270 271 272 273 273 273 272 272 270 270 270 269 268 268 266
297 288 283 287 289 287 282 279 275 272 269 269 270 271 272 276 277 276 275 275 274 272 272 271 267 267 267 268 270 272 272 272 271 271 271 271 271 269 270 271 270 269 269
298 298 294 291 289 285 284 280 276 273 269 268 268 268 271 275 275 272 271 271 270 270 270 269 264 262 265 267 269 270 271 270 271 270 270 269 269 268 269 269 271 271 271
301 299 296 291 287 290 287 280 276 273 270 270 270 270 271 272 272 271 270 270 267 269 269 265 260 261 265 265 266 267 268 269 268 270 271 270 267 269 270 268 268 269 272
300 304 300 297 296 296 291 281 280 277 281 279 274 271 270 270 271 271 268 268 268 267 267 267 265 262 260 263 264 263 264 266 268 271 273 271 269 268 267 266 267 268 272
299 295 292 289 289 289 292 290 284 285 282 278 275 273 272 271 270 270 269 267 266 267 268 269 269 269 269 268 265 263 263 265 266 269 273 274 271 270 269 268 268 267 271
300 298 294 293 290 287 280 278 284 290 288 281 278 276 274 272 270 267 267 267 267 265 267 268 271 272 273 271 266 265 265 265 265 267 269 271 272 271 270 268 269 273 276
299 297 294 291 289 287 282 277 279 280 282 283 281 280 278 274 271 267 266 265 265 264 266 266 267 271 272 272 272 269 272 269 263 262 262 265 267 267 269 270 268 270 276
301 298 293 291 290 290 286 282 280 276 272 272 270 272 270 268 262 259 262 265 267 263 264 260 260 263 267 275 280 272 273 272 274 273 276 276 277 270 260 262 270 266 270
304 302 299 293 289 286 284 284 284 282 275 269 268 268 270 272 269 268 270 263 260 263 261 261 264 273 273 276 271 267 265 265 267 268 269 268 270 270 256 251 264 271 275